Tel Aviv, Israel

7:44 AM IST on December 15, 2018 (GMT +0200)
Ben Gurion

Weather History for LLBG - October, 2018

Change the Weather History Date:

Thursday, October 11, 2018

  Actual Average Record
Temperature  
Mean Temperature 74 °F -  
Max Temperature 81 °F 78 °F 95 °F (2015)
Min Temperature 68 °F 61 °F 63 °F (2013)
Cooling Degree Days 10    
Growing Degree Days 24 (Base 50)    
Moisture  
Dew Point 61 °F    
Average Humidity 60    
Maximum Humidity 78    
Minimum Humidity 47    
Precipitation  
Precipitation 0.00 in - - ()
Sea Level Pressure  
Sea Level Pressure 29.93 in    
Wind  
Wind Speed 5 mph ()    
Max Wind Speed 14 mph    
Max Gust Speed -    
Visibility 6.2 miles    
Events      
Averages and records for this station are not official NWS values.
T = Trace of Precipitation, MM = Missing Value Source: Averaged Metar Reports

Daily Weather History Graph

Daily Weather History Graph

Search for Another Location

Airport or City:

Astronomy

Oct. 11, 2018 Rise Set
Actual Time 6:40 AM IDT 6:13 PM IDT
Civil Twilight 6:16 AM IDT 6:37 PM IDT
Nautical Twilight 5:47 AM IDT 7:05 PM IDT
Astronomical Twilight 5:19 AM IDT 7:34 PM IDT
Moon 8:45 AM IDT (10/11) 8:03 PM IDT (10/11)
Length of Visible Light 12h 21m
Length of Day
11h 32m
Waxing Crescent, 6% of the Moon is Illuminated
Oct 11
Waxing Crescent
Oct 16
First Quarter
Oct 24
Full
Oct 31
Last Quarter
Nov 7
New

Hourly Weather History & Observations

Time (IDT) Temp. Heat Index Dew Point Humidity Pressure Visibility Wind Dir Wind Speed Gust Speed Precip Events Conditions
12:00 AM 74 °F - 61 °F 55% 29.96 in 6 mi South 2.2 mph - -   Partly Cloudy
12:20 AM 75.2 °F - 60.8 °F 61% 29.95 in 6.2 mi Variable 3.5 mph - N/A   Scattered Clouds
12:50 AM 73.4 °F - 60.8 °F 65% 29.95 in 6.2 mi Variable 1.2 mph - N/A   Partly Cloudy
1:20 AM 73.4 °F - 60.8 °F 65% 29.95 in 6.2 mi Variable 2.3 mph - N/A   Partly Cloudy
1:50 AM 73.4 °F - 60.8 °F 65% 29.95 in 6.2 mi Variable 2.3 mph - N/A   Partly Cloudy
2:50 AM 71.6 °F - 60.8 °F 69% 29.95 in 6.2 mi SSE 4.6 mph - N/A   Partly Cloudy
3:00 AM 71 °F - 60 °F 61% 29.95 in 6 mi SSE 4.5 mph - -   Scattered Clouds
3:20 AM 71.6 °F - 60.8 °F 69% 29.95 in 6.2 mi Variable 2.3 mph - N/A   Partly Cloudy
3:50 AM 69.8 °F - 60.8 °F 73% 29.95 in 6.2 mi Variable 3.5 mph - N/A   Partly Cloudy
4:20 AM 69.8 °F - 60.8 °F 73% 29.95 in 6.2 mi Variable 3.5 mph - N/A   Partly Cloudy
4:50 AM 69.8 °F - 60.8 °F 73% 29.95 in 6.2 mi ESE 5.8 mph - N/A   Partly Cloudy
5:20 AM 69.8 °F - 60.8 °F 73% 29.95 in 6.2 mi Variable 3.5 mph - N/A   Partly Cloudy
5:50 AM 69.8 °F - 60.8 °F 73% 29.95 in - Variable 3.5 mph - N/A   Clear
6:00 AM 69 °F - 61 °F 68% 29.95 in 6 mi SE 4.5 mph - -  
6:20 AM 68.0 °F - 60.8 °F 78% 29.95 in 6.2 mi Variable 3.5 mph - N/A   Partly Cloudy
6:50 AM 68.0 °F - 60.8 °F 78% 29.95 in 6.2 mi Variable 3.5 mph - N/A   Mostly Cloudy
7:20 AM 69.8 °F - 60.8 °F 73% 29.95 in 6.2 mi Variable 3.5 mph - N/A   Scattered Clouds
7:50 AM 69.8 °F - 60.8 °F 73% 29.95 in 6.2 mi Variable 3.5 mph - N/A   Partly Cloudy
8:20 AM 73.4 °F - 60.8 °F 65% 29.95 in 6.2 mi Variable 2.3 mph - N/A   Partly Cloudy
8:50 AM 75.2 °F - 60.8 °F 61% 29.95 in 6.2 mi Variable 2.3 mph - N/A   Partly Cloudy
9:20 AM 78.8 °F - 60.8 °F 54% 29.95 in 6.2 mi Variable 2.3 mph - N/A   Partly Cloudy
9:50 AM 78.8 °F - 57.2 °F 47% 29.95 in 6.2 mi Variable 2.3 mph - N/A   Partly Cloudy
10:20 AM 80.6 °F 81.1 °F 59.0 °F 48% 29.95 in 6.2 mi Variable 3.5 mph - N/A   Partly Cloudy
10:50 AM 80.6 °F 81.1 °F 59.0 °F 48% 29.95 in 6.2 mi NNW 5.8 mph - N/A   Partly Cloudy
11:20 AM 80.6 °F 81.1 °F 59.0 °F 48% 29.95 in 6.2 mi WNW 9.2 mph - N/A   Scattered Clouds
11:50 AM 80.6 °F 81.5 °F 60.8 °F 51% 29.95 in 6.2 mi NW 9.2 mph - N/A   Scattered Clouds
12:20 PM 80.6 °F 81.5 °F 60.8 °F 51% 29.92 in 6.2 mi West 9.2 mph - N/A   Scattered Clouds
12:50 PM 82.4 °F 82.9 °F 60.8 °F 48% 29.92 in 6.2 mi West 9.2 mph - N/A   Scattered Clouds
1:20 PM 82.4 °F 82.9 °F 60.8 °F 48% 29.92 in 6.2 mi WNW 8.1 mph - N/A   Scattered Clouds
1:50 PM 80.6 °F 81.5 °F 60.8 °F 51% 29.92 in 6.2 mi WNW 10.4 mph - N/A   Partly Cloudy
2:20 PM 82.4 °F 82.9 °F 60.8 °F 48% 29.89 in 6.2 mi WNW 11.5 mph - N/A   Partly Cloudy
2:50 PM 80.6 °F 81.5 °F 60.8 °F 51% 29.89 in 6.2 mi NW 10.4 mph - N/A   Partly Cloudy
3:20 PM 80.6 °F 81.1 °F 59.0 °F 48% 29.89 in 6.2 mi NW 12.7 mph - N/A   Partly Cloudy
3:50 PM 80.6 °F 81.5 °F 60.8 °F 51% 29.89 in 6.2 mi NW 13.8 mph - N/A   Partly Cloudy
4:20 PM 80.6 °F 81.5 °F 60.8 °F 51% 29.89 in 6.2 mi WNW 13.8 mph - N/A   Partly Cloudy
4:50 PM 80.6 °F 81.5 °F 60.8 °F 51% 29.89 in 6.2 mi NW 12.7 mph - N/A   Partly Cloudy
5:20 PM 78.8 °F - 62.6 °F 57% 29.89 in 6.2 mi NW 12.7 mph - N/A   Partly Cloudy
5:50 PM 78.8 °F - 62.6 °F 57% 29.89 in 6.2 mi NW 13.8 mph - N/A   Partly Cloudy
6:20 PM 78.8 °F - 62.6 °F 57% 29.89 in 6.2 mi NW 10.4 mph - N/A   Mostly Cloudy
6:50 PM 78.8 °F - 62.6 °F 57% 29.92 in 6.2 mi NW 9.2 mph - N/A   Mostly Cloudy
7:20 PM 77.0 °F - 62.6 °F 61% 29.92 in 6.2 mi NW 9.2 mph - N/A   Mostly Cloudy
7:50 PM 77.0 °F - 62.6 °F 61% 29.92 in 6.2 mi NW 9.2 mph - N/A   Mostly Cloudy
8:20 PM 77.0 °F - 62.6 °F 61% 29.92 in 6.2 mi WNW 5.8 mph - N/A   Mostly Cloudy
8:50 PM 77.0 °F - 62.6 °F 61% 29.95 in 6.2 mi NNW 8.1 mph - N/A   Mostly Cloudy
9:00 PM 78 °F - 63 °F 50% 29.94 in 6 mi WNW 8.9 mph - -   Mostly Cloudy
9:20 PM 77.0 °F - 62.6 °F 61% 29.95 in 6.2 mi NW 6.9 mph - N/A   Mostly Cloudy
9:50 PM 77.0 °F - 62.6 °F 61% 29.95 in 6.2 mi NW 6.9 mph - N/A   Mostly Cloudy
10:20 PM 77.0 °F - 62.6 °F 61% 29.95 in 6.2 mi WNW 5.8 mph - N/A   Mostly Cloudy
10:50 PM 77.0 °F - 62.6 °F 61% 29.95 in 6.2 mi NW 8.1 mph - N/A   Mostly Cloudy
11:20 PM 77.0 °F - 62.6 °F 61% 29.95 in 6.2 mi WNW 5.8 mph - N/A   Mostly Cloudy
11:50 PM 75.2 °F - 62.6 °F 65% 29.95 in 6.2 mi WNW 6.9 mph - N/A   Scattered Clouds